AFR94SM LFPG-LIMF

Flight info

Callsign AFR94SM
Flight time N/A
Altitude 33000
Route OKASI DCT OKEKO DCT MOU DCT MADIV DCT MOKIP DCT TUFTA DCT GEVEA/N0462F290 DCT MOBLO DCT LURAG/N0395F190 M135 VEROB
Aircraft A320/M-SDE3FGHIRWY/LB1

Departure

Time 2026-05-05 18:53
Airport Charles de Gaulle International Airport (LFPG)

Arrival

Time N/A
Airport Turin Airport (LIMF)
Time Latitude Longitude Altitude Speed Heading
2026-05-05 18:18 49.00414 2.60003 354 ft 0 kts 85°
2026-05-05 18:32 49.00413 2.59996 354 ft 4 kts 84°
2026-05-05 18:33 49.00411 2.59956 354 ft 4 kts 89°
2026-05-05 18:33 49.00412 2.59932 354 ft 2 kts 117°
2026-05-05 18:33 49.00419 2.59919 357 ft 2 kts 161°
2026-05-05 18:33 49.00430 2.59915 361 ft 2 kts 175°
2026-05-05 18:34 49.00441 2.59914 360 ft 2 kts 178°
2026-05-05 18:34 49.00447 2.59914 360 ft 0 kts 179°
2026-05-05 18:37 49.00444 2.59914 360 ft 2 kts 177°
2026-05-05 18:37 49.00420 2.59917 354 ft 5 kts 175°
2026-05-05 18:37 49.00375 2.59923 354 ft 8 kts 175°
2026-05-05 18:38 49.00311 2.59930 356 ft 10 kts 184°
2026-05-05 18:38 49.00287 2.59849 357 ft 10 kts 268°
2026-05-05 18:38 49.00282 2.59731 354 ft 12 kts 264°
2026-05-05 18:38 49.00249 2.59624 355 ft 10 kts 189°
2026-05-05 18:39 49.00171 2.59630 354 ft 12 kts 176°
2026-05-05 18:39 49.00085 2.59638 354 ft 12 kts 179°
2026-05-05 18:39 49.00001 2.59632 354 ft 10 kts 222°
2026-05-05 18:39 48.99988 2.59524 362 ft 12 kts 266°
2026-05-05 18:40 48.99981 2.59411 354 ft 8 kts 264°
2026-05-05 18:40 48.99975 2.59315 359 ft 10 kts 264°
2026-05-05 18:40 48.99971 2.59252 356 ft 1 kts 267°
2026-05-05 18:40 48.99971 2.59240 354 ft 0 kts 268°
2026-05-05 18:43 48.99971 2.59233 354 ft 2 kts 268°
2026-05-05 18:43 48.99970 2.59203 354 ft 4 kts 268°
2026-05-05 18:44 48.99969 2.59147 354 ft 7 kts 268°
2026-05-05 18:44 48.99963 2.59065 354 ft 9 kts 262°
2026-05-05 18:44 48.99959 2.58957 360 ft 12 kts 266°
2026-05-05 18:44 48.99949 2.58823 357 ft 14 kts 263°
2026-05-05 18:45 48.99943 2.58743 359 ft 4 kts 264°
2026-05-05 18:45 48.99939 2.58685 354 ft 7 kts 263°
2026-05-05 18:45 48.99933 2.58601 354 ft 9 kts 264°
2026-05-05 18:45 48.99931 2.58493 354 ft 11 kts 266°
2026-05-05 18:46 48.99925 2.58359 354 ft 14 kts 264°
2026-05-05 18:46 48.99916 2.58198 362 ft 18 kts 265°
2026-05-05 18:46 48.99905 2.57978 354 ft 23 kts 266°
2026-05-05 18:46 48.99892 2.57745 354 ft 22 kts 262°
2026-05-05 18:47 48.99881 2.57522 354 ft 21 kts 269°
2026-05-05 18:47 48.99868 2.57312 358 ft 19 kts 266°
2026-05-05 18:47 48.99858 2.57111 360 ft 18 kts 268°
2026-05-05 18:47 48.99849 2.56926 358 ft 17 kts 265°
2026-05-05 18:48 48.99838 2.56754 354 ft 16 kts 265°
2026-05-05 18:48 48.99830 2.56596 355 ft 14 kts 265°
2026-05-05 18:48 48.99823 2.56466 355 ft 12 kts 265°
2026-05-05 18:48 48.99818 2.56356 355 ft 8 kts 265°
2026-05-05 18:49 48.99814 2.56279 359 ft 9 kts 265°
2026-05-05 18:49 48.99806 2.56147 354 ft 15 kts 265°
2026-05-05 18:49 48.99763 2.56030 357 ft 10 kts 200°
2026-05-05 18:49 48.99718 2.56033 355 ft 4 kts 176°
2026-05-05 18:50 48.99713 2.56033 355 ft 0 kts 176°
2026-05-05 18:51 48.99697 2.56035 354 ft 5 kts 176°
2026-05-05 18:52 48.99638 2.56044 354 ft 11 kts 163°
2026-05-05 18:52 48.99616 2.56129 356 ft 7 kts 87°
2026-05-05 18:52 48.99629 2.56389 360 ft 60 kts 85°
2026-05-05 18:52 48.99678 2.57381 352 ft 124 kts 84°
2026-05-05 18:53 48.99759 2.58930 509 ft 160 kts 83°
2026-05-05 18:53 48.99820 2.60639 1154 ft 166 kts 82°
2026-05-05 18:53 48.99913 2.62420 1948 ft 169 kts 80°
2026-05-05 18:53 49.00022 2.64281 2481 ft 184 kts 81°
2026-05-05 18:54 49.00139 2.66297 3014 ft 195 kts 82°
2026-05-05 18:54 49.00255 2.68387 3577 ft 202 kts 82°
2026-05-05 18:54 49.00378 2.70606 4038 ft 219 kts 83°
2026-05-05 18:54 49.00510 2.73024 4599 ft 235 kts 83°
2026-05-05 18:55 49.00644 2.75549 5321 ft 244 kts 84°
2026-05-05 18:55 49.00731 2.78221 5936 ft 262 kts 92°
2026-05-05 18:55 49.00520 2.80795 6647 ft 269 kts 97°
2026-05-05 18:55 49.00223 2.83634 7544 ft 273 kts 98°
2026-05-05 18:56 48.99899 2.86502 8446 ft 277 kts 99°
2026-05-05 18:56 48.99567 2.89402 9351 ft 280 kts 99°
2026-05-05 18:56 48.99237 2.92313 10128 ft 287 kts 100°
2026-05-05 18:56 48.98894 2.95405 10603 ft 305 kts 101°
2026-05-05 18:57 48.98229 2.98572 11053 ft 320 kts 119°
2026-05-05 18:57 48.96856 3.01218 11632 ft 328 kts 141°
2026-05-05 18:57 48.94890 3.02996 12360 ft 330 kts 162°
2026-05-05 18:57 48.92630 3.03583 13114 ft 332 kts 183°
2026-05-05 18:58 48.90379 3.02875 13838 ft 333 kts 204°
2026-05-05 18:58 48.88385 3.01066 14500 ft 336 kts 214°
2026-05-05 18:58 48.86448 2.99068 15173 ft 340 kts 214°
2026-05-05 18:58 48.84584 2.97155 15834 ft 343 kts 214°
2026-05-05 18:59 48.82859 2.95391 16432 ft 345 kts 214°
2026-05-05 18:59 48.80856 2.93347 17132 ft 348 kts 213°
2026-05-05 18:59 48.78838 2.91294 17824 ft 351 kts 213°
2026-05-05 18:59 48.76794 2.89218 18445 ft 355 kts 213°
2026-05-05 19:00 48.74734 2.87128 18741 ft 358 kts 213°
2026-05-05 19:00 48.72660 2.85022 18795 ft 359 kts 213°
2026-05-05 19:00 48.70588 2.82918 18809 ft 359 kts 213°
2026-05-05 19:00 48.68510 2.80810 19137 ft 361 kts 213°
2026-05-05 19:01 48.66410 2.78679 19692 ft 365 kts 213°
2026-05-05 19:01 48.64289 2.76534 20240 ft 369 kts 213°
2026-05-05 19:01 48.62139 2.74366 20787 ft 374 kts 212°
2026-05-05 19:01 48.59960 2.72176 21322 ft 378 kts 212°
2026-05-05 19:02 48.57758 2.69965 21854 ft 383 kts 212°
2026-05-05 19:02 48.55528 2.67727 22379 ft 387 kts 212°
2026-05-05 19:02 48.53529 2.65718 22842 ft 391 kts 212°
2026-05-05 19:02 48.51182 2.63608 23371 ft 394 kts 204°
2026-05-05 19:03 48.48609 2.62161 23818 ft 396 kts 193°
2026-05-05 19:03 48.45894 2.61461 24274 ft 397 kts 182°
2026-05-05 19:03 48.43170 2.61489 24717 ft 398 kts 175°
2026-05-05 19:03 48.40391 2.61711 25153 ft 401 kts 175°
2026-05-05 19:04 48.37603 2.61927 25588 ft 403 kts 175°
2026-05-05 19:04 48.34787 2.62137 26012 ft 406 kts 176°
2026-05-05 19:04 48.31967 2.62341 26434 ft 408 kts 175°
2026-05-05 19:04 48.29137 2.62835 26851 ft 409 kts 167°
2026-05-05 19:05 48.26404 2.64028 27279 ft 409 kts 157°
2026-05-05 19:05 48.23833 2.65864 27669 ft 410 kts 151°
2026-05-05 19:05 48.21295 2.67848 28047 ft 413 kts 152°
2026-05-05 19:05 48.18738 2.69829 28441 ft 415 kts 152°
2026-05-05 19:06 48.16162 2.71810 28800 ft 417 kts 152°
2026-05-05 19:06 48.13563 2.73797 29172 ft 420 kts 152°
2026-05-05 19:06 48.10951 2.75785 29533 ft 422 kts 152°
2026-05-05 19:06 48.08330 2.77772 29871 ft 424 kts 153°
2026-05-05 19:07 48.05650 2.79677 30046 ft 429 kts 155°
2026-05-05 19:07 48.02892 2.81478 30175 ft 435 kts 156°
2026-05-05 19:07 48.00080 2.83217 30300 ft 440 kts 157°
2026-05-05 19:07 47.97229 2.84947 30422 ft 444 kts 158°
2026-05-05 19:08 47.94360 2.86694 30601 ft 446 kts 157°
2026-05-05 19:08 47.91497 2.88462 30844 ft 446 kts 157°
2026-05-05 19:08 47.88640 2.90253 31112 ft 445 kts 157°
2026-05-05 19:08 47.85792 2.92059 31378 ft 445 kts 157°
2026-05-05 19:09 47.82952 2.93869 31654 ft 444 kts 157°
2026-05-05 19:09 47.80065 2.95707 31932 ft 443 kts 157°
2026-05-05 19:09 47.77271 2.97479 32201 ft 443 kts 157°
2026-05-05 19:09 47.74437 2.99272 32467 ft 442 kts 157°
2026-05-05 19:10 47.71604 3.01058 32727 ft 442 kts 158°
2026-05-05 19:10 47.68770 3.02836 32833 ft 441 kts 158°
2026-05-05 19:10 47.63168 3.06330 32843 ft 439 kts 158°
2026-05-05 19:11 47.57544 3.09839 32844 ft 439 kts 158°
2026-05-05 19:11 47.51918 3.13368 32849 ft 439 kts 158°